Weather in Dolgoe

Ukraine / Zakarpattia District     48°22′03″N   23°17′13″E
temp.,
°C
wind,
m/s
gust,
m/s
humid.,
%
clouds,
%
prec.,
mm/h
press.,
hPa
HPBL,
m
12 april, mon
mon1200:00+10e2271100 0.0 102217
03:00+9e2270100 0.0 102217
06:00+9ese2268100 0.0 102225
09:00+11ese236538 0.0 1021157
12:00+15sse235482 0.0 1020672
15:00+18sw234815 0.0 10191447
18:00+17ssw225217 0.0 10181257
21:00+13ene2267100 0.0 101912
13 april, tue
tue1300:00+11ene227610 0.0 101914
03:00+9ene227861 0.0 101820
06:00+9ene227824 0.0 101724
09:00+12e1267100 0.0 1017156
12:00+17sse2353100 0.0 1016747
15:00+19wsw235080 0.0 10141268
18:00+13nw2288100 2.6 1013102
21:00+9wsw2395100 4.9 1014194
14 april, wed
wed1400:00+7ssw1295100 0.3 1015184
03:00+6sw1296100 1.8 1014210
06:00+5sw1297100 2.6 1014211
09:00+5wsw1296100 4.7 1015267
12:00+4nw1294100 1.9 1015335
15:00+3nnw3495100 4.1 1016348
18:00+3nnw3594100 0.6 1016441
21:00+2n2597100 1.3 1017320
15 april, thu
thu1500:00+1nnw2499100 1.5 1018200
03:00+1nw1299100 2.6 1018150
06:00+1nw119999 0.8 1018164
09:00+2wsw1199100 1.2 1019203
12:00+2sw2299100 0.6 1020275
15:00+3sw1299100 1.6 1020392
18:00+3se1099100 0.6 1020356
21:00+3ene0195100 0.6 1020118
16 april, fri
fri1600:00+3w1195100 0.0 102134
03:00+2n1193100 0.0 102124
06:000n2290100 0.0 102117
09:00+3nw1180100 0.0 1022236
12:00+6w2367100 0.0 1022985
15:00+8w335999 0.1 10211407
18:00+8w335994 0.1 10211316
21:00+4wnw117814 0.1 102311